Aurora, IL

8:26 AM CST on December 17, 2017 (GMT -0600)
Aurora Municipal

Weather History for KARR - February, 2013

Change the Weather History Date:

Monday, February 11, 2013

  Actual Average Record
Temperature  
Mean Temperature 35 °F 23 °F  
Max Temperature 42 °F 32 °F 70 °F (1999)
Min Temperature 28 °F 15 °F -23 °F (2014)
Degree Days  
Heating Degree Days 30 42  
Month to date heating degree days 476 471  
Since 1 July heating degree days 4163 4488  
Cooling Degree Days 0 0  
Month to date cooling degree days 0 0  
Year to date cooling degree days 0 0  
Moisture  
Dew Point 25 °F    
Average Humidity 71    
Maximum Humidity 76    
Minimum Humidity 66    
Precipitation  
Precipitation T in 0.05 in 0.74 in (2009)
Month to date precipitation 1.36 0.50  
Year to date precipitation 4.50 1.97  
Sea Level Pressure  
Sea Level Pressure 29.78 in    
Wind  
Wind Speed 26 mph (West)    
Max Wind Speed 40 mph    
Max Gust Speed 48 mph    
Visibility 10 miles    
Events      
T = Trace of Precipitation, MM = Missing Value Source: NWS Daily Summary

Daily Weather History Graph

Daily Weather History Graph

Search for Another Location

Airport or City:

Trip Planner

Search our weather history database for the weather conditions in past years. The results will help you decide how hot, cold, wet, or windy it might be!

Date:

Astronomy

Feb. 11, 2013 Rise Set
Actual Time 6:54 AM CST 5:22 PM CST
Civil Twilight 6:25 AM CST 5:51 PM CST
Nautical Twilight 5:52 AM CST 6:24 PM CST
Astronomical Twilight 5:20 AM CST 6:56 PM CST
Moon 7:16 AM CST (2/11) 7:21 PM CST (2/11)
Length of Visible Light 11h 25m
Length of Day
10h 28m
Waxing Crescent, 3% of the Moon is Illuminated
Feb 11
Waxing Crescent
Feb 17
First Quarter
Feb 25
Full
Mar 4
Last Quarter
Mar 11
New

Hourly Weather History & Observations

Time (CST) Temp. Windchill Dew Point Humidity Pressure Visibility Wind Dir Wind Speed Gust Speed Precip Events Conditions
12:52 AM 39.9 °F 29.7 °F 32.0 °F 73% 29.55 in 10.0 mi WSW 23.0 mph 34.5 mph N/A   Overcast
1:41 AM 37.4 °F 28.2 °F 32.0 °F 81% 29.55 in 10.0 mi WSW 16.1 mph 26.5 mph N/A   Overcast
1:52 AM 37.0 °F 25.9 °F 30.9 °F 79% 29.57 in 10.0 mi WSW 23.0 mph 32.2 mph N/A   Overcast
2:45 AM 35.6 °F 24.5 °F 28.4 °F 75% 29.57 in 10.0 mi WSW 20.7 mph 38.0 mph 0.00 in   Overcast
2:52 AM 36.0 °F 23.5 °F 28.0 °F 73% 29.59 in 10.0 mi WSW 27.6 mph 40.3 mph 0.00 in   Overcast
3:52 AM 34.0 °F 21.8 °F 27.0 °F 75% 29.60 in 10.0 mi WSW 23.0 mph 36.8 mph N/A   Overcast
4:30 AM 33.8 °F 20.3 °F 26.6 °F 75% 29.60 in 10.0 mi WSW 28.8 mph 38.0 mph N/A   Overcast
4:52 AM 33.1 °F 19.8 °F 25.0 °F 72% 29.62 in 10.0 mi WSW 26.5 mph 38.0 mph N/A   Overcast
5:52 AM 33.1 °F 19.6 °F 25.0 °F 72% 29.63 in 10.0 mi WSW 27.6 mph 36.8 mph N/A   Overcast
6:18 AM 33.8 °F 21.9 °F 26.6 °F 75% 29.62 in 10.0 mi WSW 21.9 mph 34.5 mph N/A   Overcast
6:44 AM 33.8 °F 20.5 °F 24.8 °F 70% 29.64 in 10.0 mi WSW 27.6 mph 39.1 mph N/A   Overcast
6:52 AM 33.1 °F 19.8 °F 25.0 °F 72% 29.65 in 10.0 mi WSW 26.5 mph 39.1 mph N/A   Overcast
7:12 AM 33.8 °F 19.9 °F 24.8 °F 70% 29.65 in 10.0 mi WSW 31.1 mph 40.3 mph N/A   Overcast
7:52 AM 33.1 °F 18.4 °F 25.0 °F 72% 29.68 in 10.0 mi WSW 33.4 mph 44.9 mph N/A   Overcast
8:52 AM 33.1 °F 19.8 °F 26.1 °F 75% 29.71 in 10.0 mi WSW 26.5 mph 40.3 mph N/A   Overcast
9:52 AM 33.1 °F 20.6 °F 25.0 °F 72% 29.74 in 10.0 mi WSW 23.0 mph 35.7 mph 0.00 in   Overcast
10:52 AM 33.1 °F 18.9 °F 25.0 °F 72% 29.78 in 10.0 mi West 31.1 mph 40.3 mph N/A   Overcast
11:52 AM 32.0 °F 16.0 °F 25.0 °F 75% 29.80 in 10.0 mi West 39.1 mph 47.2 mph N/A   Overcast
12:52 PM 32.0 °F 17.6 °F 24.1 °F 73% 29.83 in 10.0 mi West 29.9 mph 39.1 mph N/A   Overcast
1:52 PM 32.0 °F 18.1 °F 24.1 °F 73% 29.85 in 10.0 mi West 27.6 mph 36.8 mph N/A   Overcast
2:52 PM 32.0 °F 17.9 °F 23.0 °F 69% 29.88 in 10.0 mi West 28.8 mph 47.2 mph N/A   Overcast
3:52 PM 30.9 °F 15.9 °F 21.9 °F 69% 29.90 in 10.0 mi West 31.1 mph 41.4 mph N/A   Overcast
4:52 PM 30.9 °F 17.8 °F 23.0 °F 72% 29.94 in 10.0 mi West 23.0 mph 29.9 mph N/A   Overcast
5:52 PM 30.0 °F 16.9 °F 23.0 °F 75% 29.96 in 10.0 mi West 21.9 mph 32.2 mph N/A   Overcast
6:52 PM 30.0 °F 16.9 °F 23.0 °F 75% 30.00 in 10.0 mi West 21.9 mph 27.6 mph N/A   Overcast
7:44 PM 30.2 °F 16.8 °F 21.2 °F 69% 29.98 in 10.0 mi WNW 23.0 mph 32.2 mph N/A   Overcast
7:52 PM 30.0 °F 16.0 °F 21.9 °F 72% 30.01 in 10.0 mi WNW 25.3 mph 34.5 mph N/A   Overcast
8:08 PM 30.2 °F 16.5 °F 21.2 °F 69% 29.99 in 10.0 mi West 24.2 mph 34.5 mph N/A   Overcast
8:52 PM 30.0 °F 16.0 °F 23.0 °F 75% 30.01 in 10.0 mi West 25.3 mph 29.9 mph N/A   Overcast
9:52 PM 28.9 °F 16.1 °F 21.9 °F 75% 30.03 in 10.0 mi West 19.6 mph 25.3 mph N/A   Overcast
10:52 PM 28.9 °F 16.9 °F 21.9 °F 75% 30.05 in 10.0 mi West 17.3 mph - N/A   Overcast
11:52 PM 28.0 °F 16.1 °F 21.9 °F 78% 30.07 in 10.0 mi West 16.1 mph - N/A   Overcast